[[{"header":{"parameterUnit":"m.s-1","parameterCategory":1,"la1":30.2991,"la2":30.254,"lo1":-89.0895,"lo2":-89.0444,"dy":0.0017,"dx":0.0017,"nx":28,"ny":28,"refTime":"2024-07-29T21:00:00:Z","depth":0,"parameterNumber":2,"parameterNumberName":"U-component_of_WINDS"},"data":[0,0,0,0,0,0,0,0,0,0,0,0,0,0,0,0,0,0,0,0,0,0,0,0,0,0,0,0,0,0,0,0,0,0,0,0,0,0,0,0,0,0,0,0,0,0,0,0,0,0,0,0,0,0,0,0,0,0,4.0978,4.0979,0,4.107,4.1071,4.1072,4.1016,4.1013,4.101,4.1008,4.1103,4.1108,4.1113,0,0,0,0,0,0,0,0,0,0,0,0,0,4.0756,4.076,4.0978,4.0979,4.098,4.107,4.1071,4.1072,4.1016,4.1013,4.101,4.1007,4.1101,4.1107,4.1113,0,0,0,0,0,0,0,0,0,0,0,0,0,4.0851,4.0762,4.0978,4.0963,4.0963,4.107,4.1071,4.1073,4.1017,4.1013,4.1009,4.1005,4.1099,4.1107,4.1114,4.1241,0,0,4.1137,4.1141,0,0,0,0,0,0,0,0,4.0845,4.0859,4.0964,4.0964,4.0964,4.1027,4.1028,4.1129,4.1018,4.0996,4.1008,4.1003,4.1081,4.109,4.1116,4.1246,4.125,4.1138,4.1142,4.1146,4.1148,0,0,0,0,0,0,0,4.0839,4.0855,4.1014,4.0966,4.0966,4.0952,4.0961,4.1047,4.106,4.0998,4.0994,4.1006,4.108,4.1109,4.1118,4.1251,4.1138,4.1144,4.1149,4.1152,4.1491,4.1495,0,0,0,0,0,0,4.0833,4.0849,4.1011,4.1017,4.0894,4.096,4.097,4.1011,4.1059,4.1062,4.1009,4.1003,4.1098,4.1109,4.1121,4.1273,4.1146,4.1153,4.1157,4.1487,4.1492,4.1497,0,0,0,0,0,0,4.0829,4.0848,4.1008,4.0932,4.0952,4.0968,4.1015,4.1015,4.1043,4.1067,4.107,4.1035,4.1095,4.111,4.1212,4.1276,4.1156,4.1163,4.1481,4.1488,4.1494,4.1579,0,0,0,0,0,0,4.0823,4.0847,4.0895,4.0934,4.0956,4.1097,4.1018,4.102,4.1056,4.1049,4.1093,4.1096,4.1093,4.1201,4.1219,4.1284,4.1169,4.1476,4.1484,4.1492,4.1571,4.1588,4.1603,0,0,0,0,0,4.0815,4.0915,4.0897,4.0917,4.1016,4.1101,4.1113,4.1107,4.1062,4.111,4.1126,4.1095,4.1266,4.1212,4.1232,4.13,4.1471,4.1482,4.1492,4.1564,4.1585,4.1602,0,0,0,0,0,0,4.0883,4.092,4.0901,4.1016,4.1056,4.1091,4.1152,4.113,4.1183,4.1174,4.1165,4.1175,4.1281,4.1301,4.124,4.1426,4.1362,4.1376,4.141,4.143,4.1445,4.1438,4.1175,0,0,0,0,0,4.0911,4.0977,4.1005,4.1105,4.1125,4.1136,4.1172,4.1164,4.1205,4.1221,4.1244,4.1285,4.1348,4.139,4.1449,4.1574,4.1583,4.163,4.1646,4.1659,4.1672,4.174,4.1762,4.153,4.153,4.153,0,0,4.0971,4.0999,4.1041,4.1119,4.1149,4.1217,4.115,4.1225,4.1276,4.1233,4.133,4.1349,4.1394,4.1508,4.1559,4.1527,4.1739,4.1672,4.1683,4.1688,4.1753,4.1775,4.1795,4.1537,4.1535,4.1534,0,0,4.1114,4.1142,4.1228,4.1259,4.1305,4.1311,4.1332,4.1371,4.1382,4.148,4.1449,4.151,4.1618,4.1652,4.1684,4.1842,4.1816,4.1862,4.1945,4.2012,4.203,4.2046,4.2103,4.2124,4.1874,4.1874,4.1875,0,4.1183,4.1284,4.1275,4.1353,4.1389,4.1353,4.1441,4.1472,4.1535,4.1561,4.1525,4.1661,4.1689,4.1811,4.1849,4.1876,4.19,4.1856,4.2028,4.2044,4.2059,4.2113,4.2135,4.188,4.1879,4.1879,4.1878,0,4.1366,4.1437,4.1501,4.1563,4.1606,4.1688,4.1693,4.1738,4.1727,4.1738,4.1838,4.1871,4.1936,4.1965,4.1954,4.2086,4.2065,4.2029,4.1963,4.2087,4.2137,4.2158,4.1887,4.1885,4.1884,4.1883,0,0,4.1554,4.1611,4.1635,4.1663,4.1711,4.1766,4.1848,4.1912,4.1951,4.1996,4.2065,4.2158,4.2125,4.2161,4.2155,4.2213,4.2337,4.217,4.2171,4.22,4.2485,4.2512,4.2536,4.232,4.2324,4.2327,4.2481,0,4.1701,4.1842,4.1838,4.197,4.2036,4.2004,4.2075,4.2113,4.2125,4.2184,4.2197,4.2264,4.2215,4.2237,4.2293,4.231,4.2394,4.2299,4.2385,4.2388,4.2374,4.2562,4.2591,4.2734,4.2501,4.2504,4.2506,0,4.189,4.1942,4.2081,4.2121,4.2148,4.2212,4.2271,4.2327,4.237,4.2375,4.2416,4.24,4.2484,4.2417,4.2532,4.2468,4.2503,4.2517,4.2522,4.253,4.2454,4.2575,4.278,4.2801,4.2538,4.2535,4.2533,0,4.2015,4.2119,4.2215,4.224,4.2289,4.2335,4.2357,4.2396,4.2436,4.2488,4.2513,4.2574,4.2608,4.2656,4.2658,4.2609,4.2775,4.2708,4.2782,4.2783,4.2819,4.2816,4.3032,4.2841,4.2841,4.2841,4.284,0,4.2179,4.2265,4.2272,4.2331,4.2428,4.2422,4.2518,4.2536,4.2571,4.2634,4.2611,4.267,4.2669,4.2731,4.2733,4.2829,4.2844,4.2851,4.285,4.2853,4.2852,4.2876,4.2866,4.2846,4.2845,4.2844,4.2843,0,4.2334,4.2341,4.2445,4.2483,4.2494,4.2564,4.2596,4.2654,4.2664,4.2744,4.2763,4.278,4.2851,4.2858,4.294,4.2942,4.3058,4.3046,4.3043,4.3041,4.3115,4.3108,4.3353,4.3385,4.3174,4.3176,4.3178,0,4.2438,4.2504,4.2549,4.2589,4.2614,4.268,4.272,4.2718,4.276,4.2815,4.2866,4.2935,4.2989,4.3105,4.3125,4.3188,4.3178,4.326,4.3188,4.3189,4.318,4.3176,4.3183,4.3274,4.3276,4.3278,4.3279,0,4.2623,4.2624,4.2682,4.2743,4.2791,4.2838,4.2883,4.2918,4.2921,4.297,4.3043,4.3085,4.317,4.3239,4.3301,4.3325,4.3304,4.3302,4.3323,4.3326,4.3322,4.3325,4.3082,4.3296,4.3295,4.3293,4.3293,4.3292,4.2756,4.2813,4.2854,4.292,4.2953,4.2996,4.3051,4.3069,4.3129,4.3197,4.3193,4.3273,4.3315,4.3397,4.3426,4.3489,4.3462,4.3491,4.3499,4.3506,4.3514,4.3312,4.35,4.35,4.3499,4.3499,4.3499,0,4.294,4.2965,4.3026,4.3089,4.3141,4.3116,4.3164,4.321,4.328,4.3322,4.3376,4.346,4.3527,4.3553,4.3618,4.3664,4.3656,4.3681,4.3678,4.3684,4.3535,4.351,4.3687,4.3687,4.3687,4.3687,4.3687,4.3687,4.3042,4.3137,4.3143,4.3256,4.328,4.3358,4.3388,4.3427,4.346,4.3554,4.361,4.3626,4.3662,4.373,4.379,4.3796,4.3822,4.3852,4.3854,4.3713,4.3694,4.3676,4.3653,4.3857,4.3858,4.3998,4.3999,4.4]},{"header":{"parameterUnit":"m.s-1","parameterCategory":1,"la1":30.2991,"la2":30.254,"lo1":-89.0895,"lo2":-89.0444,"dy":0.0017,"dx":0.0017,"nx":28,"ny":28,"refTime":"2024-07-29T21:00:00:Z","depth":0,"parameterNumber":3,"parameterNumberName":"V-component_of_WINDS"},"data":[0,0,0,0,0,0,0,0,0,0,0,0,0,0,0,0,0,0,0,0,0,0,0,0,0,0,0,0,0,0,0,0,0,0,0,0,0,0,0,0,0,0,0,0,0,0,0,0,0,0,0,0,0,0,0,0,0,0,-0.9049,-0.9049,0,-0.9068,-0.9068,-0.9068,-0.9073,-0.9073,-0.9073,-0.9073,-0.9091,-0.9092,-0.9092,0,0,0,0,0,0,0,0,0,0,0,0,0,-0.9015,-0.9016,-0.9049,-0.9049,-0.9049,-0.9068,-0.9068,-0.9068,-0.9073,-0.9073,-0.9073,-0.9072,-0.9091,-0.9092,-0.9093,0,0,0,0,0,0,0,0,0,0,0,0,0,-0.9032,-0.9016,-0.9048,-0.9054,-0.9054,-0.9068,-0.9068,-0.9068,-0.9073,-0.9073,-0.9073,-0.9072,-0.9091,-0.9092,-0.9093,-0.9102,0,0,-0.9095,-0.9096,0,0,0,0,0,0,0,0,-0.9031,-0.9033,-0.9053,-0.9053,-0.9054,-0.9068,-0.9063,-0.908,-0.9073,-0.9066,-0.9073,-0.9072,-0.9084,-0.9085,-0.9089,-0.9103,-0.9104,-0.9096,-0.9096,-0.9096,-0.9097,0,0,0,0,0,0,0,-0.903,-0.9032,-0.9056,-0.9053,-0.9054,-0.9055,-0.9057,-0.9066,-0.9075,-0.9066,-0.9067,-0.9069,-0.9084,-0.9088,-0.9089,-0.9104,-0.9095,-0.9096,-0.9097,-0.9097,-0.9127,-0.9127,0,0,0,0,0,0,-0.9028,-0.9031,-0.9055,-0.9057,-0.9042,-0.9056,-0.9058,-0.9064,-0.9075,-0.9077,-0.9069,-0.9069,-0.9087,-0.9088,-0.909,-0.9102,-0.9096,-0.9097,-0.9098,-0.9127,-0.9127,-0.9127,0,0,0,0,0,0,-0.9027,-0.903,-0.9055,-0.9044,-0.9047,-0.9056,-0.9063,-0.9064,-0.9068,-0.9077,-0.9079,-0.9072,-0.9087,-0.9089,-0.9099,-0.9103,-0.9098,-0.9099,-0.9126,-0.9127,-0.9127,-0.9126,0,0,0,0,0,0,-0.9026,-0.903,-0.9033,-0.9044,-0.9048,-0.9063,-0.9063,-0.9064,-0.907,-0.907,-0.908,-0.9082,-0.9087,-0.9098,-0.91,-0.9104,-0.9099,-0.9126,-0.9127,-0.9127,-0.9126,-0.9126,-0.9127,0,0,0,0,0,-0.9025,-0.9032,-0.9033,-0.9036,-0.9053,-0.9064,-0.9066,-0.9071,-0.907,-0.9074,-0.908,-0.9082,-0.9102,-0.9099,-0.9101,-0.9106,-0.9126,-0.9127,-0.9127,-0.9125,-0.9126,-0.9127,0,0,0,0,0,0,-0.9021,-0.9033,-0.9035,-0.9046,-0.9054,-0.9064,-0.9069,-0.9072,-0.908,-0.9079,-0.9086,-0.9088,-0.9098,-0.9103,-0.9099,-0.9116,-0.9114,-0.9115,-0.9112,-0.9113,-0.9113,-0.9111,-0.91,0,0,0,0,0,-0.9021,-0.9029,-0.904,-0.9048,-0.9052,-0.906,-0.9065,-0.9069,-0.9077,-0.908,-0.9087,-0.9095,-0.9103,-0.9108,-0.9116,-0.9127,-0.9129,-0.9131,-0.9131,-0.9132,-0.9132,-0.9138,-0.9139,-0.9129,-0.9129,-0.9129,0,0,-0.9022,-0.903,-0.9034,-0.9047,-0.9054,-0.9062,-0.9063,-0.9071,-0.9077,-0.9081,-0.9091,-0.9097,-0.9106,-0.9116,-0.9121,-0.9121,-0.9136,-0.9132,-0.9133,-0.9133,-0.9139,-0.914,-0.9141,-0.9129,-0.9129,-0.9129,0,0,-0.9027,-0.9034,-0.9042,-0.9049,-0.9059,-0.9064,-0.9066,-0.9077,-0.908,-0.9091,-0.9094,-0.9102,-0.9116,-0.9122,-0.9127,-0.9136,-0.9138,-0.9138,-0.9141,-0.9147,-0.9147,-0.9148,-0.9151,-0.9152,-0.9139,-0.9139,-0.9139,0,-0.9026,-0.9039,-0.9045,-0.9054,-0.906,-0.9065,-0.9073,-0.9079,-0.9091,-0.9095,-0.9094,-0.9112,-0.9118,-0.9131,-0.9133,-0.9137,-0.9139,-0.9137,-0.9147,-0.9148,-0.9148,-0.9151,-0.9153,-0.9139,-0.9139,-0.9139,-0.9139,0,-0.9038,-0.9047,-0.9052,-0.9064,-0.907,-0.9078,-0.9086,-0.9092,-0.9095,-0.9101,-0.9112,-0.912,-0.913,-0.9133,-0.9136,-0.9146,-0.9145,-0.9146,-0.9144,-0.9149,-0.9152,-0.9153,-0.9139,-0.9139,-0.9139,-0.9139,0,0,-0.904,-0.9056,-0.9058,-0.9064,-0.9076,-0.9082,-0.9091,-0.9101,-0.9106,-0.9114,-0.9122,-0.9134,-0.9135,-0.9141,-0.9145,-0.915,-0.9156,-0.915,-0.915,-0.9151,-0.9168,-0.9167,-0.9168,-0.9158,-0.9158,-0.9159,-0.9167,0,-0.9047,-0.9063,-0.9069,-0.9082,-0.909,-0.9095,-0.9102,-0.9111,-0.9116,-0.9124,-0.913,-0.9139,-0.9139,-0.9143,-0.9148,-0.9154,-0.916,-0.9154,-0.9165,-0.9165,-0.9162,-0.917,-0.9169,-0.9176,-0.9168,-0.9168,-0.9168,0,-0.9057,-0.9066,-0.9079,-0.909,-0.9094,-0.9101,-0.9111,-0.9118,-0.9128,-0.9131,-0.9138,-0.9142,-0.9152,-0.915,-0.9163,-0.9159,-0.9164,-0.9168,-0.9168,-0.9169,-0.9167,-0.917,-0.9179,-0.918,-0.917,-0.917,-0.917,0,-0.9057,-0.9072,-0.9083,-0.9087,-0.9101,-0.9105,-0.9111,-0.912,-0.9126,-0.9135,-0.9139,-0.9149,-0.9154,-0.9161,-0.9168,-0.9166,-0.918,-0.9179,-0.9183,-0.9183,-0.9186,-0.9185,-0.9194,-0.9189,-0.9189,-0.9189,-0.9189,0,-0.9063,-0.9071,-0.9083,-0.9089,-0.9098,-0.9106,-0.9115,-0.9121,-0.9129,-0.9137,-0.9142,-0.9149,-0.9157,-0.9165,-0.917,-0.918,-0.9183,-0.9186,-0.9187,-0.9185,-0.9185,-0.9188,-0.9187,-0.919,-0.919,-0.919,-0.9189,0,-0.9065,-0.9073,-0.9084,-0.9097,-0.91,-0.9106,-0.9116,-0.9123,-0.9129,-0.9138,-0.9141,-0.915,-0.916,-0.9168,-0.918,-0.9184,-0.9194,-0.9196,-0.9191,-0.9192,-0.9195,-0.9195,-0.9207,-0.9208,-0.9202,-0.9202,-0.9203,0,-0.9068,-0.9075,-0.9088,-0.9093,-0.9099,-0.9108,-0.9114,-0.9122,-0.9128,-0.914,-0.9145,-0.9155,-0.9163,-0.9179,-0.9187,-0.9197,-0.9198,-0.9202,-0.92,-0.9198,-0.9198,-0.9197,-0.9198,-0.9202,-0.9202,-0.9202,-0.9202,0,-0.9074,-0.9077,-0.9086,-0.9097,-0.9104,-0.9113,-0.9121,-0.9125,-0.9135,-0.9142,-0.9152,-0.9159,-0.9172,-0.9182,-0.9192,-0.9198,-0.9202,-0.9203,-0.9204,-0.9202,-0.9199,-0.92,-0.9191,-0.9202,-0.9202,-0.9202,-0.9202,-0.9202,-0.9076,-0.9082,-0.9092,-0.9102,-0.911,-0.9118,-0.9124,-0.9132,-0.914,-0.9152,-0.9156,-0.9166,-0.9176,-0.9191,-0.9197,-0.9205,-0.9205,-0.9208,-0.9208,-0.9208,-0.9208,-0.9198,-0.9207,-0.9207,-0.9207,-0.9207,-0.9207,0,-0.9081,-0.9088,-0.9098,-0.911,-0.9117,-0.912,-0.913,-0.9136,-0.9146,-0.9155,-0.9163,-0.9175,-0.9185,-0.9194,-0.9205,-0.921,-0.9211,-0.9212,-0.9211,-0.9213,-0.9208,-0.9205,-0.921,-0.921,-0.921,-0.921,-0.921,-0.921,-0.9085,-0.9096,-0.9101,-0.9115,-0.9122,-0.9132,-0.9138,-0.9145,-0.9153,-0.9166,-0.9174,-0.918,-0.9189,-0.92,-0.921,-0.9212,-0.9216,-0.9216,-0.9219,-0.9213,-0.9213,-0.9213,-0.921,-0.9217,-0.9217,-0.9223,-0.9223,-0.9223]}]]